Content
SEND FEEDBACK

Daily
Averages
Monthly
Summary
United States of America

WILMINGTON, NORTH CAROLINA


Home > North America > United States > North Carolina
Elevation: 21 meters     Latitude: 34 16N     Longitude: 077 54W

WEATHER
 
SELECT A DAY
Number of Records: 208,780;   Date Range: 1/1/95 - 7/26/14
 
SHARE

PRINT THIS DATA

[ ← Previous Day ]
WEATHER ALMANAC - 15 OCTOBER, 2013
[ Next Day → ]
[ °F ]   °C
Weather ElementAverageHighLow
Temperature18.6 °C22 °C (2:33 pm)16.7 °C (4:53 am)
Dewpoint15.8 °C17.2 °C (6:53 pm)14.4 °C (6:53 am)
Humidity83.9 %90 % (4:53 am)73 % (2:33 pm)
Barometer1017.9 hPa1020 hPa (9:53 am)1016.3 hPa (3:53 pm)
Wind Speed13.5 km/h24.1 km/h (2:53 pm)
Weather ElementAverage
Visibility15.8 km
Wind DirectionSSW (214.5 °)

Weather ElementTotal
Precipitation---
Cooling Degree Days1 (Base 18.3)
Growing Degree Days9.4 (Base 10)
Averaged from 29 records on 15 October, 2013
WEATHER CONDITIONS BREAKOUT
WIND DIRECTION BREAKOUT
WEATHER BY HOUR - 15 OCTOBER, 2013
[ °F ]   °C
Local TimeTemperatureDewpointHumidityBarometerVisibilityWind DirectionWind SpeedGust SpeedPrecipitationEventsConditions
1:53 AM17.8 °C15 °C84 %1019.3 hPa16.1 kmNorth (360°)14.8 km/hOvercast
2:30 AM18 °C15 °C83 %1019.3 hPa16.1 kmNNE (20°)16.7 km/hOvercast
2:53 AM17.2 °C15 °C87 %1019 hPa16.1 kmNorth (10°)14.8 km/hOvercast
3:31 AM17 °C15 °C88 %1018.6 hPa12.9 kmNorth (10°)14.8 km/hOvercast
3:53 AM17.2 °C15 °C87 %1018.3 hPa14.5 kmNorth (10°)18.5 km/hOvercast
4:53 AM16.7 °C15 °C90 %1018.6 hPa9.7 kmNNE (20°)14.8 km/hOvercast
5:53 AM16.7 °C15 °C90 %1019 hPa16.1 kmNorth (360°)11.1 km/hOvercast
6:53 AM16.7 °C14.4 °C86 %1019 hPa16.1 kmNorth (350°)13 km/hOvercast
7:53 AM16.7 °C14.4 °C86 %1019 hPa16.1 kmNorth (10°)14.8 km/hOvercast
8:53 AM16.7 °C14.4 °C86 %1019.6 hPa16.1 kmNorth (360°)14.8 km/hOvercast
9:53 AM16.7 °C14.4 °C86 %1020 hPa16.1 kmNorth (360°)14.8 km/hOvercast
10:53 AM17.8 °C15 °C84 %1019.3 hPa16.1 kmNorth (360°)13 km/hOvercast
11:41 AM18 °C15 °C83 %1019 hPa16.1 kmNorth (10°)16.7 km/hOvercast
11:53 AM18.9 °C15 °C78 %1018.6 hPa16.1 kmNorth (360°)13 km/hOvercast
12:53 PM20 °C15.6 °C76 %1018.3 hPa16.1 kmNorth (10°)11.1 km/hOvercast
1:53 PM20.6 °C16.1 °C75 %1017.3 hPa16.1 kmNorth (360°)13 km/hOvercast
2:33 PM22 °C17 °C73 %1016.6 hPa16.1 kmNNE (20°)16.7 km/hOvercast
2:53 PM21.7 °C16.7 °C73 %1016.6 hPa16.1 kmNorth (10°)24.1 km/hOvercast
3:53 PM21.7 °C16.7 °C73 %1016.3 hPa16.1 kmNorth (360°)14.8 km/hOvercast
4:53 PM20.6 °C16.7 °C78 %1016.3 hPa16.1 kmNorth (360°)13 km/hOvercast
5:53 PM20 °C16.7 °C81 %1016.6 hPa16.1 kmNorth (360°)13 km/hOvercast
6:53 PM19.4 °C17.2 °C87 %1016.9 hPa16.1 kmNNW (340°)11.1 km/hOvercast
7:53 PM19.4 °C17.2 °C87 %1017.3 hPa16.1 kmNorth (350°)11.1 km/hOvercast
8:10 PM19 °C17 °C88 %1017.3 hPa16.1 kmNorth (350°)9.3 km/hOvercast
8:53 PM19.4 °C17.2 °C87 %1017.3 hPa16.1 kmNorth (360°)11.1 km/hOvercast
9:53 PM18.3 °C16.7 °C90 %1016.9 hPa16.1 kmNorth (10°)9.3 km/hClear
10:53 PM18.3 °C16.7 °C90 %1016.6 hPa16.1 kmNorth (360°)9.3 km/hMostly Cloudy
11:34 PM19 °C17 °C88 %1016.3 hPa16.1 kmNorth (10°)9.3 km/hOvercast
11:53 PM18.9 °C17.2 °C90 %1016.3 hPa16.1 kmNorth (360°)7.4 km/hOvercast
Hourly data recorded from KILM, located 0 kilometers away from Wilmington, North Carolina







STORIES FROM OUR PARTNERS